GFSFLT1_850_rhum_294.txt.gz
RH
75 88 93 94 95 86 84 88 88 82 83 86 89 70 81 63 66 61 77 74 80 85 77 66 57 49 35 25 69 89 79 78 89
46 54 65 80 87 90 89 89 91 84 80 79 79 71 65 66 64 62 84 76 72 67 78 83 69 58 47 29 46 81 81 79 78
20 25 34 46 59 74 83 89 95 97 94 86 80 78 72 66 62 68 92 94 81 74 40 63 83 64 48 38 35 72 81 83 83
8 11 13 17 25 41 54 71 83 90 94 96 89 85 83 73 65 62 78 93 92 78 49 39 75 80 52 42 34 73 76 83 86
4 4 6 6 8 12 21 38 53 74 85 87 88 92 95 90 79 77 80 93 92 82 65 34 38 84 70 49 34 49 82 73 85
2 2 2 3 3 4 6 11 19 37 59 80 86 87 91 92 92 79 89 89 87 86 79 44 39 60 88 63 47 35 79 84 75
3 2 2 2 2 2 3 4 6 11 22 43 70 91 89 89 95 93 94 94 96 95 86 67 37 57 76 84 62 40 64 83 83
4 4 3 3 3 3 3 3 3 4 7 14 33 59 89 92 88 95 90 99 97 94 92 83 50 44 82 94 65 61 47 77 84
6 6 6 5 4 4 4 3 3 3 3 4 8 18 42 72 91 88 86 90 99 96 99 96 68 59 55 95 87 70 59 56 80
6 7 8 11 10 7 5 4 4 4 4 4 4 5 11 26 53 79 88 88 90 93 91 90 98 64 67 56 61 84 64 53 59
8 7 7 7 7 10 10 9 7 5 6 6 5 4 4 6 13 35 67 82 89 90 89 86 91 96 76 68 53 60 82 65 50
18 16 18 22 14 9 8 10 12 10 8 6 5 5 5 4 4 6 21 52 75 90 90 93 87 93 96 74 69 60 63 76 66
16 18 18 21 23 26 29 31 30 16 11 9 7 6 5 5 5 4 4 9 30 64 88 100 97 90 92 91 74 73 62 69 73
13 13 14 16 19 21 25 32 32 36 40 29 14 9 7 6 5 4 4 3 4 13 45 76 99 99 95 90 83 72 67 57 63
13 13 14 16 17 19 25 31 34 41 46 42 33 34 13 8 6 8 8 6 4 3 6 25 60 96 100 97 90 86 54 60 57
45 38 31 24 23 21 22 26 38 46 49 55 50 25 27 37 44 35 44 46 68 68 48 20 13 46 93 100 100 92 82 55 60
59 63 60 55 46 37 37 35 41 38 44 62 53 52 34 44 43 40 42 63 69 99 93 64 46 29 52 86 100 97 92 72 62
60 66 68 66 63 61 53 66 76 77 72 71 80 80 76 74 34 15 20 41 63 80 91 99 96 80 45 63 91 100 100 92 61
55 66 70 77 84 86 87 86 88 86 88 82 84 78 80 84 79 69 23 14 15 26 65 84 95 98 99 94 86 100 100 99 98
54 59 68 78 85 88 90 89 86 86 90 91 87 86 83 81 86 87 82 51 36 38 27 20 54 76 87 97 99 100 100 96 98

GFSFLT1_850_rhum_300.txt.gz
RH
51 60 80 90 92 88 78 75 79 82 82 80 82 85 84 66 61 69 90 83 84 77 82 72 56 56 45 24 61 84 83 79 80
28 35 43 53 71 84 85 86 84 81 70 69 72 82 83 72 68 68 88 92 84 79 71 61 75 62 58 32 66 90 81 73 74
14 16 20 27 38 52 72 82 85 86 81 73 69 73 73 77 75 75 80 93 88 85 76 75 51 73 67 50 35 91 90 79 72
9 9 8 12 15 20 34 54 73 82 89 90 86 82 81 80 78 77 82 99 92 90 88 81 71 44 79 63 39 58 86 86 74
3 3 4 5 5 8 10 17 30 53 73 82 88 90 93 94 91 82 75 92 94 96 98 96 81 67 54 84 54 36 67 84 78
3 2 2 2 2 2 3 4 8 14 29 50 72 84 89 93 100 98 81 82 92 93 99 94 86 84 48 63 84 52 40 73 86
2 2 2 2 2 2 2 2 2 3 7 14 29 54 75 87 94 100 98 84 87 92 94 98 94 92 74 57 67 82 52 44 76
3 3 3 3 2 2 2 2 2 2 2 4 8 18 39 64 83 93 100 100 90 89 92 97 99 93 92 67 62 76 78 52 55
4 3 3 3 3 3 3 3 3 3 2 2 2 4 9 20 45 68 86 100 100 100 100 99 100 100 93 85 63 60 76 81 48
5 5 4 4 4 4 4 4 4 3 3 3 3 2 2 4 8 23 44 68 90 100 100 97 98 98 100 93 87 66 82 96 80
7 7 6 6 6 6 6 5 5 5 4 4 4 3 3 3 2 3 7 16 41 67 88 96 96 96 95 100 90 89 73 93 97
9 10 11 11 11 10 9 7 6 5 5 5 4 4 4 4 3 3 2 3 5 11 31 64 88 95 98 100 100 92 100 94 93
11 10 10 9 10 9 9 9 8 8 7 5 5 5 5 4 4 4 3 3 2 3 4 10 35 69 90 100 100 100 98 100 85
11 11 11 11 12 12 12 12 12 11 11 9 7 6 6 6 6 6 6 6 6 5 5 4 4 14 39 66 93 100 96 99 100
14 16 16 15 15 16 16 16 15 18 18 16 12 9 13 10 8 9 13 17 18 20 22 20 17 14 8 22 51 83 98 93 98
19 17 17 17 16 18 21 21 20 20 21 19 14 15 17 19 19 23 18 17 18 21 37 44 40 35 32 24 14 33 72 95 90
21 19 19 20 19 21 23 26 24 26 33 40 29 36 40 48 23 17 18 18 16 20 23 29 43 54 56 52 45 32 25 49 91
26 26 27 28 25 24 26 29 30 26 29 39 45 49 77 57 45 29 21 18 14 12 12 14 17 26 36 53 62 64 52 49 44
33 37 37 38 39 40 42 46 47 46 35 42 60 67 82 87 84 51 26 23 21 18 16 15 12 12 13 20 43 61 74 79 68
38 42 45 48 51 54 57 58 61 70 60 53 58 64 66 64 92 99 52 19 24 25 24 20 18 16 13 11 12 28 54 81 79

GFSFLT1_850_rhum_303.txt.gz
RH
64 76 83 87 85 82 71 76 80 86 90 94 87 89 84 71 64 67 78 73 83 83 78 82 58 58 38 33 75 85 87 77 54
36 49 61 74 82 83 81 74 76 77 74 75 80 92 84 73 66 70 84 80 83 83 73 67 74 67 56 29 80 85 86 83 66
17 20 26 38 53 69 78 78 79 77 76 73 75 83 84 79 78 72 82 86 83 86 87 77 69 68 72 44 63 88 87 72 73
10 11 12 16 19 26 42 60 75 79 82 83 81 89 87 86 81 75 80 97 92 92 89 89 81 64 67 74 36 80 90 87 73
4 4 5 6 8 10 13 20 33 56 73 81 88 91 94 95 90 83 79 97 97 97 93 95 87 77 58 80 69 38 73 92 78
3 3 3 2 2 3 4 6 9 17 30 52 67 80 90 96 96 94 83 82 98 94 100 99 90 88 81 55 83 65 42 70 87
3 3 2 2 2 2 2 2 2 4 8 14 27 43 63 81 94 100 99 91 83 98 99 100 97 89 90 80 58 89 67 47 66
3 3 3 3 3 3 3 2 2 2 2 4 8 14 27 47 69 87 98 99 97 85 88 99 97 99 95 85 80 71 89 77 50
3 3 3 3 3 3 3 3 3 2 2 2 2 3 7 14 29 52 74 92 97 96 91 97 99 97 97 98 81 68 69 88 79
4 4 4 4 4 4 3 3 3 3 3 3 3 2 2 3 6 13 29 49 74 96 96 98 97 94 95 99 95 82 71 87 86
5 4 4 4 4 4 4 4 4 3 3 3 3 3 3 3 3 3 5 10 21 48 74 96 95 93 93 95 100 95 75 80 100
7 6 6 6 6 5 5 5 5 4 4 4 4 4 3 3 3 3 3 3 3 5 18 44 70 92 93 97 89 100 99 93 88
11 11 10 10 10 9 8 6 5 5 4 4 4 4 4 4 3 3 4 3 4 4 3 4 16 48 81 91 94 95 100 100 100
11 11 12 13 14 14 12 11 10 8 6 5 5 5 4 5 7 7 8 8 7 8 9 7 6 5 18 57 84 90 98 94 100
11 12 12 13 12 13 13 14 16 15 13 8 8 8 9 10 9 10 11 12 13 14 15 15 16 15 10 8 26 58 75 97 94
13 13 13 14 14 15 15 16 18 18 17 13 10 13 14 16 16 15 16 18 17 15 14 12 12 16 22 22 17 12 31 56 86
14 15 15 15 18 22 23 23 23 27 31 28 23 24 31 25 26 16 16 13 12 10 10 10 12 13 12 14 22 26 22 18 29
16 17 18 20 20 22 25 26 27 27 34 37 33 45 62 29 31 25 18 14 12 12 12 11 10 8 8 10 12 14 20 29 36
19 20 21 21 22 24 28 31 32 34 38 42 43 54 65 60 59 34 22 18 18 15 13 12 12 12 10 9 8 8 11 16 26
22 23 25 27 27 28 29 33 38 37 41 50 51 48 52 54 81 90 45 26 23 23 19 15 13 12 12 11 11 9 8 8 15

GFSFLT1_850_rhum_306.txt.gz
RH
71 81 83 79 79 72 71 76 84 78 97 94 80 86 86 72 60 74 73 78 87 77 80 79 57 55 30 63 78 84 76 46 69
48 59 72 81 85 78 76 74 74 76 80 91 96 99 92 74 66 70 77 77 85 78 73 66 72 65 50 47 86 90 80 68 57
24 29 39 52 64 74 80 80 78 74 75 82 84 90 88 79 73 70 77 76 93 89 88 83 73 64 73 41 77 88 82 70 63
17 14 17 20 26 39 54 65 75 78 79 83 84 86 84 83 78 75 77 82 84 86 92 92 84 70 62 76 38 84 92 82 72
8 9 9 9 11 14 18 26 41 58 70 78 84 89 92 91 85 79 76 79 80 88 84 86 88 85 70 81 76 45 88 93 76
4 4 3 3 3 4 6 9 12 19 32 50 63 75 87 94 95 89 80 82 83 88 96 96 88 87 86 81 86 70 48 76 90
4 3 3 2 2 2 2 2 3 5 8 15 25 40 60 80 93 98 92 87 86 93 96 99 96 87 85 79 78 87 81 49 72
4 4 3 3 3 2 2 2 2 2 2 4 8 14 24 46 69 85 96 99 96 83 90 98 100 93 90 87 68 74 89 86 51
4 4 3 3 3 3 3 2 2 2 2 2 3 4 8 14 29 51 71 87 99 98 93 91 98 100 97 97 90 68 69 85 97
5 4 4 4 4 3 3 3 3 3 2 3 2 2 2 3 6 13 26 47 73 93 96 93 93 95 97 94 94 91 69 70 80
5 5 4 4 4 4 4 3 3 3 3 3 3 3 2 2 3 3 5 8 18 42 76 92 93 95 98 93 100 100 93 70 93
6 5 5 5 5 5 4 4 4 4 4 4 4 3 3 3 3 3 3 3 3 5 11 45 81 93 92 92 91 94 98 94 74
8 7 6 6 6 6 5 5 5 4 4 4 4 4 4 4 4 4 5 5 6 6 4 4 12 36 75 90 88 90 90 100 97
10 9 9 8 8 8 7 6 5 5 5 5 5 4 5 7 8 9 10 9 9 10 11 9 6 5 11 37 73 82 90 85 99
12 13 13 13 13 13 12 11 9 7 6 6 7 8 10 11 11 11 12 13 13 13 12 12 13 13 9 6 13 45 67 84 90
14 13 14 16 16 16 17 19 18 14 10 9 9 10 11 14 16 15 16 16 14 13 12 10 10 10 11 13 12 9 15 43 64
14 14 15 16 17 19 20 20 20 20 17 15 15 17 18 20 21 20 16 13 12 10 10 9 8 7 7 8 9 11 13 12 18
13 14 16 17 18 20 20 22 22 24 25 22 21 29 31 21 17 16 19 15 13 12 12 11 10 9 8 7 6 6 7 9 13
14 15 16 18 20 21 22 22 23 26 30 30 31 34 35 35 24 19 19 16 15 15 15 13 12 11 10 9 9 8 7 5 6
16 16 18 19 21 22 24 26 29 31 34 35 38 41 47 51 60 49 23 16 17 17 16 14 14 14 13 12 10 10 9 8 7